Location: Владивосток
(43.1151°N, 131.8856°E)
Time: 15:56:45
(UTC+10:00)

SEEDS - Pass Details

Date: 02 May 2024
Orbit: 551 x 562 km, 97.7° (Epoch: 19 May)

Event Time Altitude Azimuth Distance (km) Brightness Sun altitude
Rises 04:20:04 0° 26° (NNE) 2,737 ? -17.0°
Reaches altitude 10° 04:22:35 10° 42° (NE) 1,837 ? -16.7°
Maximum altitude 04:25:43 22° 94° (E) 1,228 ? -16.2°
Drops below altitude 10° 04:28:51 10° 147° (SSE) 1,826 ? -15.8°
Sets 04:31:20 0° 162° (SSE) 2,716 ? -15.5°
